Current Weather Conditions: station 63103

sailwx.info

Wind from 210 at 21 knots

Wave height 3.7 meters (12 feet), 7 second period

Air temperature 5.9° C
Dewpoint -0.2° C

Last reported at 2018-Feb-23 05:00 UTC.
Time now 2018-Feb-23 06:51 UTC

Location: N 61°12' E 001°06'.
View on Google Maps.

See reports from other nearby stations

  
Tides and Currents Weather Stations Pressure Air Temp Water Temp Dewpoint Dewpoint Depression Visibility Wind Speed Wind Dir Waves Ship Positions
date/time (UTC)wind fromknots sea level pressurealtimeterstation pressurevisibilityair tempwater tempwave heightnotes
2018-Feb-23 05:00 210 21 5.9 3.7
2018-Feb-23 04:00 210 20 5.6 3.6
2018-Feb-23 03:00 200 21 5.9 3.6
2018-Feb-23 02:00 220 22 5.6 3.7
2018-Feb-23 01:00 200 20 5.9 3.4
2018-Feb-23 00:00 200 20 6.0 3.5
2018-Feb-22 23:00 200 22 5.4 3.3
2018-Feb-22 22:00 190 22 6.2 3.3
2018-Feb-22 21:00 200 22 6.1 3.6
2018-Feb-22 20:00 200 22 5.9 3.0
2018-Feb-22 19:00 190 22 6.0 3.2
2018-Feb-22 18:00 190 24 5.9 3.2
2018-Feb-22 17:00 200 21 6.0 3.0
2018-Feb-22 16:00 190 22 6.1 3.0
2018-Feb-22 15:00 200 21 6.2 3.0
2018-Feb-22 14:00 200 21 6.2 2.6
2018-Feb-22 13:00 200 20 5.6 2.3
2018-Feb-22 12:00 190 20 6.3 2.0
2018-Feb-22 11:00 190 20 6.0 1.9
2018-Feb-22 10:00 190 19 6.1 1.9
2018-Feb-22 09:00 190 18 6.1 1.8
2018-Feb-22 08:00 200 17 6.0 1.9
2018-Feb-22 07:00 200 15 6.0 1.9
2018-Feb-22 06:00 200 15 5.9 2.0
2018-Feb-22 05:00 190 15 5.9 2.2
2018-Feb-22 04:00 190 14 5.9 2.0
2018-Feb-22 03:00 180 14 5.7 2.2
2018-Feb-22 02:00 190 12 5.9 2.5
2018-Feb-22 01:00 190 9 5.9 2.5
2018-Feb-22 00:00 200 6 5.8 2.4
2018-Feb-21 23:00 200 7 5.8 2.8
2018-Feb-21 22:00 170 7 5.7 2.6
2018-Feb-21 21:00 200 6 5.7 3.0
2018-Feb-21 20:00 200 4 5.9 2.7
2018-Feb-21 19:00 220 2 5.8 2.9
2018-Feb-21 18:00 190 0 5.8 3.0
2018-Feb-21 17:00 250 2 6.0 3.3
2018-Feb-21 16:00 270 5 6.4 3.4
2018-Feb-21 15:00 300 2 7.7 3.2
2018-Feb-21 14:00 310 4 7.7 3.3
2018-Feb-21 13:00 310 5 7.2 3.3
2018-Feb-21 12:00 320 6 7.3 3.1
2018-Feb-21 11:00 340 6 7.1 3.2
2018-Feb-21 10:00 340 7 6.6 3.0
2018-Feb-21 09:00 320 9 6.3 3.6
2018-Feb-21 08:00 330 9 6.4 3.7
2018-Feb-21 07:00 330 11 6.3 3.5
2018-Feb-21 06:00 330 12 6.2 3.9